This demonstration page uses our WeatherBlox Daily Observations layout. Learn more.

Left ArrowRight Arrow

Hourly Observations for October 11, 2018

Temp ( °F °C ) Dew Point ( °F °C ) Humidity (%) Winds ( mph kmh ) Pressure ( in mb ) Visibility ( mi km ) Precip ( " mm )
12:57 am 00:57 Clear 32 0 28 -2.2 85 85 WNW 6 9 30.19 1023 10 16 0.00 0.00
1:57 am 01:57 Clear 31 -0.6 27 -2.8 85 85 NW 7 11 30.20 1023 10 16 0.00 0.00
2:57 am 02:57 Clear 29 -1.7 26 -3.3 89 89 WNW 8 13 30.22 1023 10 16 0.00 0.00
3:57 am 03:57 Clear 28 -2.2 26 -3.3 92 92 W 6 9 30.24 1024 10 16 0.00 0.00
4:57 am 04:57 Clear 28 -2.2 25 -3.9 88 88 NW 6 9 30.22 1023 10 16 0.00 0.00
5:57 am 05:57 Clear 27 -2.8 25 -3.9 92 92 WNW 6 9 30.24 1024 10 16 0.00 0.00
6:57 am 06:57 Clear 26 -3.3 24 -4.4 92 92 WNW 7 11 30.24 1024 10 16 0.00 0.00
7:57 am 07:57 Sunny 27 -2.8 25 -3.9 92 92 WNW 7 11 30.26 1025 10 16 0.00 0.00
8:57 am 08:57 Sunny 33 0.6 27 -2.8 78 78 WNW 8 13 30.26 1025 10 16 0.00 0.00
9:57 am 09:57 Sunny 36 2.2 28 -2.2 73 73 W 6 9 30.27 1025 10 16 0.00 0.00
10:57 am 10:57 Sunny 40 4.4 28 -2.2 63 63 NNW 9 15 30.26 1025 10 16 0.00 0.00
11:57 am 11:57 Sunny 43 6.1 27 -2.8 53 53 N 9 15 30.24 1024 10 16 0.00 0.00
12:57 pm 12:57 Sunny 45 7.2 28 -2.2 52 52 N 3 6 30.22 1023 10 16 0.00 0.00
1:57 pm 13:57 Sunny 48 8.9 30 -1.1 50 50 VRB 3 6 30.19 1022 10 16 0.00 0.00
2:57 pm 14:57 Sunny 48 8.9 30 -1.1 50 50 VRB 5 7 30.16 1021 10 16 0.00 0.00
3:57 pm 15:57 Mostly Sunny 49 9.4 30 -1.1 48 48 Calm 30.14 1021 10 16 0.00 0.00
4:57 pm 16:57 Cloudy with Haze 50 10 31 -0.6 48 48 WNW 3 6 30.12 1020 3 5 0.00 0.00
5:57 pm 17:57 Cloudy 49 9.4 32 0 52 52 S 5 7 30.11 1020 10 16 0.00 0.00
6:57 pm 18:57 Cloudy 47 8.3 32 0 56 56 SW 9 15 30.11 1020 10 16 0.00 0.00
7:57 pm 19:57 Cloudy 46 7.8 32 0 58 58 SW 10 17 30.12 1020 10 16 0.00 0.00
8:57 pm 20:57 Cloudy 45 7.2 33 0.6 63 63 SW 9 15 30.11 1020 10 16 0.00 0.00
9:57 pm 21:57 Cloudy 45 7.2 34 1.1 66 66 SW 7 11 30.11 1020 10 16 0.00 0.00
10:57 pm 22:57 Cloudy 44 6.7 34 1.1 68 68 WSW 8 13 30.12 1020 10 16 0.00 0.00
11:57 pm 23:57 Cloudy 44 6.7 34 1.1 68 68 WSW 7 11 30.10 1019 10 16 0.00 0.03

Powered by AerisWeather